Hourly Data Report for July 10, 2021

DRYDEN REGIONAL
ONTARIO
Current Station Operator: NAVCAN

49°49'39.000" N
92°44'39.000" W
412.70 m
6032125
71527
YHD

Download Data

Hourly Data (July 2021)
Hourly Data Report for July 10, 2021
TIME
LST
Temp Definition
°C
Dew Point Definition
°C
Rel Hum Definition
%
Precip. Amount Definition
mm

Wind Dir Definition
10's deg

Wind Spd Definition
km/h
Visibility Definition
km
Stn Press Definition
kPa
Hmdx Definition


Wind Chill Definition


Weather Definition


00:00 18.7 12.1 65 0.0 23 9 16.1 96.77     LegendNANA
01:00 18.7 12.5 67 0.0 20 9 16.1 96.71     LegendNANA
02:00 18.6 12.5 68 0.0 22 8 16.1 96.69     LegendNANA
03:00 18.2 12.7 70 0.0 21 8 16.1 96.71     LegendNANA
04:00 18.3 13.7 74 0.0 8 8 16.1 96.78     LegendNANA
05:00 18.3 12.8 70 0.0 20 8 16.1 96.83     LegendNANA
06:00 17.8 14.2 79 0.0 20 11 16.1 96.85     LegendNANA
07:00 19.9 14.6 71 0.0 23 9 16.1 96.89     LegendNANA
08:00 21.9 13.2 57 0.0 22 13 16.1 96.88 25   LegendNANA
09:00 23.2 12.6 51 0.0 26 13 16.1 96.86 26   LegendNANA
10:00 24.3 13.3 50 0.0 26 13 16.1 96.84 27   LegendNANA
11:00 25.1 13.4 48 0.0 26 17 16.1 96.81 28   LegendNANA
12:00 26.3 13.7 45 0.0 28 11 16.1 96.78 29   LegendNANA
13:00 27.3 13.8 43 0.0 23 15 16.1 96.73 31   LegendNANA
14:00 28.7 13.4 39 0.0 25 21 16.1 96.68 32   LegendNANA
15:00 29.4 12.7 35 0.0 31 11 16.1 96.65 32   LegendNANA
16:00 29.8 12.3 34 0.0 29 9 16.1 96.64 32   LegendNANA
17:00 30.1 11.4 31 0.0 27 21 16.1 96.63 32   LegendNANA
18:00 28.1 13.0 39 0.0 24 13 16.1 96.63 31   LegendNANA
19:00 26.5 13.1 43 0.0 25 11 16.1 96.65 29   LegendNANA
20:00 24.6 13.7 50 0.0 23 9 16.1 96.66 28   LegendNANA
21:00 23.7 14.3 55 0.0 24 15 16.1 96.71 27   LegendNANA
22:00 22.6 13.8 57 0.0 23 13 16.1 96.73 26   LegendNANA
23:00 21.9 13.1 57 0.0 22 13 16.1 96.73 25   LegendNANA

Notes on Data Quality.

Legend

  • E = Estimated
  • M = Missing
  • NA = Not Available*
  • [empty] = Indicates an unobserved value
Date modified: